Time,TemperatureF,DewpointF,PressureIn,WindDirection,WindDirectionDegrees,WindSpeedMPH,WindSpeedGustMPH,Humidity,HourlyPrecipIn,Conditions,Clouds,dailyrainin,SolarRadiationWatts/m^2,SoftwareType,DateUTC
2013-10-29 00:02:00,66.6,33.3,29.97,West,279,1.0,5.0,29,0.00,,,0.00,0.0,meteohub,2013-10-29 07:02:00,
2013-10-29 00:07:00,66.6,33.3,29.97,WNW,299,2.0,5.0,29,0.00,,,0.00,0.0,meteohub,2013-10-29 07:07:00,
2013-10-29 00:12:00,66.7,33.4,29.97,NW,309,4.0,5.0,29,0.00,,,0.00,0.0,meteohub,2013-10-29 07:12:00,
2013-10-29 00:17:00,66.9,33.6,29.97,NW,315,2.0,5.0,29,0.00,,,0.00,0.0,meteohub,2013-10-29 07:17:00,
2013-10-29 00:22:00,66.9,32.7,29.97,WNW,302,5.0,5.0,28,0.00,,,0.00,0.0,meteohub,2013-10-29 07:22:00,
2013-10-29 00:27:00,67.3,33.1,29.97,NW,307,1.0,6.0,28,0.00,,,0.00,0.0,meteohub,2013-10-29 07:27:00,
2013-10-29 00:32:00,67.3,33.1,29.97,WNW,301,2.0,6.0,28,0.00,,,0.00,0.0,meteohub,2013-10-29 07:32:00,
2013-10-29 00:37:00,67.1,32.9,29.97,West,279,1.0,6.0,28,0.00,,,0.00,0.0,meteohub,2013-10-29 07:37:00,
2013-10-29 00:42:00,66.9,32.7,29.97,WNW,296,1.0,3.0,28,0.00,,,0.00,0.0,meteohub,2013-10-29 07:42:00,
2013-10-29 00:47:00,66.9,32.7,29.97,NW,304,2.0,6.0,28,0.00,,,0.00,0.0,meteohub,2013-10-29 07:47:00,
2013-10-29 00:52:00,66.9,32.7,29.97,NW,304,2.0,6.0,28,0.00,,,0.00,0.0,meteohub,2013-10-29 07:52:00,
2013-10-29 00:57:00,66.9,32.7,29.97,NW,320,1.0,6.0,28,0.00,,,0.00,0.0,meteohub,2013-10-29 07:57:00,
2013-10-29 01:02:00,66.9,32.7,29.97,NW,310,2.0,4.0,28,0.00,,,0.00,0.0,meteohub,2013-10-29 08:02:00,
2013-10-29 01:07:00,66.7,32.5,29.97,NW,310,1.0,4.0,28,0.00,,,0.00,0.0,meteohub,2013-10-29 08:07:00,
2013-10-29 01:12:00,66.9,32.7,29.97,NW,309,2.0,4.0,28,0.00,,,0.00,0.0,meteohub,2013-10-29 08:12:00,
2013-10-29 01:17:00,67.1,32.9,29.97,NW,313,4.0,6.0,28,0.00,,,0.00,0.0,meteohub,2013-10-29 08:17:00,
2013-10-29 01:23:00,67.5,33.3,29.97,WNW,303,0.0,8.0,28,0.00,,,0.00,0.0,meteohub,2013-10-29 08:23:00,
2013-10-29 01:28:00,67.3,33.1,29.97,WNW,295,1.0,8.0,28,0.00,,,0.00,0.0,meteohub,2013-10-29 08:28:00,
2013-10-29 01:33:00,67.1,32.9,29.97,NW,311,1.0,8.0,28,0.00,,,0.00,0.0,meteohub,2013-10-29 08:33:00,
2013-10-29 01:38:00,67.3,33.1,29.97,NW,314,4.0,4.0,28,0.00,,,0.00,0.0,meteohub,2013-10-29 08:38:00,
2013-10-29 01:43:00,67.5,33.3,29.97,West,269,2.0,7.0,28,0.00,,,0.00,0.0,meteohub,2013-10-29 08:43:00,
2013-10-29 01:48:00,67.3,33.1,29.97,West,265,2.0,7.0,28,0.00,,,0.00,0.0,meteohub,2013-10-29 08:48:00,
2013-10-29 01:53:00,66.9,32.7,29.97,WNW,297,1.0,5.0,28,0.00,,,0.00,0.0,meteohub,2013-10-29 08:53:00,
2013-10-29 01:58:00,66.7,32.5,29.97,WSW,244,2.0,4.0,28,0.00,,,0.00,0.0,meteohub,2013-10-29 08:58:00,
2013-10-29 02:03:00,67.1,32.9,29.97,WSW,244,3.0,8.0,28,0.00,,,0.00,0.0,meteohub,2013-10-29 09:03:00,
2013-10-29 02:08:00,67.3,33.1,29.96,WNW,300,0.0,8.0,28,0.00,,,0.00,0.0,meteohub,2013-10-29 09:08:00,
2013-10-29 02:13:00,67.5,33.3,29.96,West,279,2.0,8.0,28,0.00,,,0.00,0.0,meteohub,2013-10-29 09:13:00,
2013-10-29 02:18:00,67.3,33.1,29.96,NW,306,2.0,7.0,28,0.00,,,0.00,0.0,meteohub,2013-10-29 09:18:00,
2013-10-29 02:23:00,67.1,32.9,29.96,West,269,2.0,7.0,28,0.00,,,0.00,0.0,meteohub,2013-10-29 09:23:00,
2013-10-29 02:28:00,66.9,32.7,29.96,WNW,287,4.0,6.0,28,0.00,,,0.00,0.0,meteohub,2013-10-29 09:28:00,
2013-10-29 02:33:00,66.7,32.5,29.96,NW,304,3.0,5.0,28,0.00,,,0.00,0.0,meteohub,2013-10-29 09:33:00,
2013-10-29 02:38:00,66.9,32.7,29.97,NW,308,4.0,5.0,28,0.00,,,0.00,0.0,meteohub,2013-10-29 09:38:00,
2013-10-29 02:43:00,66.9,32.7,29.97,NW,310,2.0,6.0,28,0.00,,,0.00,0.0,meteohub,2013-10-29 09:43:00,
2013-10-29 02:48:00,67.1,32.9,29.97,NW,311,1.0,6.0,28,0.00,,,0.00,0.0,meteohub,2013-10-29 09:48:00,
2013-10-29 02:53:00,67.1,32.9,29.97,NW,321,3.0,6.0,28,0.00,,,0.00,0.0,meteohub,2013-10-29 09:53:00,
2013-10-29 02:58:00,67.3,33.1,29.96,NW,320,3.0,5.0,28,0.00,,,0.00,0.0,meteohub,2013-10-29 09:58:00,
2013-10-29 03:03:00,67.3,32.2,29.96,WNW,286,2.0,5.0,27,0.00,,,0.00,0.0,meteohub,2013-10-29 10:03:00,
2013-10-29 03:08:00,67.3,32.2,29.97,WNW,300,0.0,5.0,27,0.00,,,0.00,0.0,meteohub,2013-10-29 10:08:00,
2013-10-29 03:13:00,67.5,32.4,29.97,West,269,2.0,5.0,27,0.00,,,0.00,0.0,meteohub,2013-10-29 10:13:00,
2013-10-29 03:18:00,67.5,32.4,29.97,NW,313,4.0,4.0,27,0.00,,,0.00,0.0,meteohub,2013-10-29 10:18:00,
2013-10-29 03:23:00,67.5,32.4,29.97,NW,309,0.0,4.0,27,0.00,,,0.00,0.0,meteohub,2013-10-29 10:23:00,
2013-10-29 03:29:00,67.5,32.4,29.97,WNW,302,2.0,6.0,27,0.00,,,0.00,0.0,meteohub,2013-10-29 10:29:00,
2013-10-29 03:34:00,67.6,32.5,29.97,WNW,299,1.0,8.0,27,0.00,,,0.00,0.0,meteohub,2013-10-29 10:34:00,
2013-10-29 03:39:00,67.5,32.4,29.97,WNW,291,5.0,8.0,27,0.00,,,0.00,0.0,meteohub,2013-10-29 10:39:00,
2013-10-29 03:44:00,67.5,32.4,29.96,NW,306,2.0,8.0,27,0.00,,,0.00,0.0,meteohub,2013-10-29 10:44:00,
2013-10-29 03:49:00,67.5,32.4,29.96,WNW,288,2.0,6.0,27,0.00,,,0.00,0.0,meteohub,2013-10-29 10:49:00,
2013-10-29 03:54:00,67.1,32.0,29.96,NW,312,4.0,6.0,27,0.00,,,0.00,0.0,meteohub,2013-10-29 10:54:00,
2013-10-29 03:59:00,67.1,32.0,29.97,NW,311,2.0,6.0,27,0.00,,,0.00,0.0,meteohub,2013-10-29 10:59:00,
2013-10-29 04:04:00,67.3,32.2,29.97,NW,312,2.0,5.0,27,0.00,,,0.00,0.0,meteohub,2013-10-29 11:04:00,
2013-10-29 04:09:00,67.1,32.0,29.97,NW,312,1.0,5.0,27,0.00,,,0.00,0.0,meteohub,2013-10-29 11:09:00,
2013-10-29 04:14:00,66.7,31.6,29.97,NW,308,2.0,5.0,27,0.00,,,0.00,0.0,meteohub,2013-10-29 11:14:00,
2013-10-29 04:19:00,66.6,31.5,29.97,NW,319,3.0,4.0,27,0.00,,,0.00,0.0,meteohub,2013-10-29 11:19:00,
2013-10-29 04:24:00,66.6,31.5,29.97,West,279,1.0,4.0,27,0.00,,,0.00,0.0,meteohub,2013-10-29 11:24:00,
2013-10-29 04:29:00,66.7,31.6,29.97,West,273,1.0,7.0,27,0.00,,,0.00,0.0,meteohub,2013-10-29 11:29:00,
2013-10-29 04:34:00,66.9,31.8,29.97,NW,316,2.0,7.0,27,0.00,,,0.00,0.0,meteohub,2013-10-29 11:34:00,
2013-10-29 04:39:00,66.7,31.6,29.97,NNW,341,2.0,7.0,27,0.00,,,0.00,0.0,meteohub,2013-10-29 11:39:00,
2013-10-29 04:44:00,66.6,31.5,29.97,NW,306,1.0,5.0,27,0.00,,,0.00,0.0,meteohub,2013-10-29 11:44:00,
2013-10-29 04:49:00,66.4,32.4,29.97,NW,308,2.0,4.0,28,0.00,,,0.00,0.0,meteohub,2013-10-29 11:49:00,
2013-10-29 04:54:00,66.4,32.4,29.97,NW,321,0.0,4.0,28,0.00,,,0.00,0.0,meteohub,2013-10-29 11:54:00,
2013-10-29 04:59:00,66.2,32.2,29.97,West,275,0.0,4.0,28,0.00,,,0.00,0.0,meteohub,2013-10-29 11:59:00,
2013-10-29 05:04:00,66.0,32.0,29.97,West,275,1.0,4.0,28,0.00,,,0.00,0.0,meteohub,2013-10-29 12:04:00,
2013-10-29 05:09:00,65.8,32.7,29.97,NNW,329,2.0,4.0,29,0.00,,,0.00,0.0,meteohub,2013-10-29 12:09:00,
2013-10-29 05:14:00,65.8,32.7,29.97,NNW,329,1.0,4.0,29,0.00,,,0.00,0.0,meteohub,2013-10-29 12:14:00,
2013-10-29 05:19:00,65.7,32.5,29.97,NNW,329,0.0,3.0,29,0.00,,,0.00,0.0,meteohub,2013-10-29 12:19:00,
2013-10-29 05:24:00,65.5,32.4,29.97,NNW,329,1.0,3.0,29,0.00,,,0.00,0.0,meteohub,2013-10-29 12:24:00,
2013-10-29 05:29:00,64.9,32.0,29.97,WNW,302,1.0,2.0,29,0.00,,,0.00,0.0,meteohub,2013-10-29 12:29:00,
2013-10-29 05:34:00,64.6,32.4,29.97,WNW,302,1.0,2.0,30,0.00,,,0.00,0.0,meteohub,2013-10-29 12:34:00,
2013-10-29 05:39:00,64.8,32.5,29.97,NW,319,2.0,2.0,30,0.00,,,0.00,0.0,meteohub,2013-10-29 12:39:00,
2013-10-29 05:44:00,64.6,32.4,29.97,NW,319,0.0,3.0,30,0.00,,,0.00,0.0,meteohub,2013-10-29 12:44:00,
2013-10-29 05:49:00,64.2,32.2,29.97,NW,319,0.0,3.0,30,0.00,,,0.00,0.0,meteohub,2013-10-29 12:49:00,
2013-10-29 05:54:00,64.0,32.7,29.97,NW,319,1.0,3.0,31,0.00,,,0.00,0.0,meteohub,2013-10-29 12:54:00,
2013-10-29 06:00:00,63.9,32.7,29.97,NW,319,1.0,2.0,31,0.00,,,0.00,0.0,meteohub,2013-10-29 13:00:00,
2013-10-29 06:05:00,64.0,32.7,29.97,NW,319,1.0,3.0,31,0.00,,,0.00,0.0,meteohub,2013-10-29 13:05:00,
2013-10-29 06:10:00,64.0,32.7,29.97,NW,319,1.0,3.0,31,0.00,,,0.00,0.0,meteohub,2013-10-29 13:10:00,
2013-10-29 06:15:00,64.0,32.7,29.97,NW,319,2.0,3.0,31,0.00,,,0.00,0.0,meteohub,2013-10-29 13:15:00,
2013-10-29 06:20:00,64.4,32.4,29.97,NW,319,1.0,2.0,30,0.00,,,0.00,0.0,meteohub,2013-10-29 13:20:00,
2013-10-29 06:25:00,64.6,32.4,29.97,NW,319,1.0,3.0,30,0.00,,,0.00,0.0,meteohub,2013-10-29 13:25:00,
2013-10-29 06:30:00,64.8,32.5,29.97,NW,319,1.0,3.0,30,0.00,,,0.00,0.0,meteohub,2013-10-29 13:30:00,
2013-10-29 06:35:00,64.8,32.5,29.97,NW,313,2.0,3.0,30,0.00,,,0.00,0.0,meteohub,2013-10-29 13:35:00,
2013-10-29 06:40:00,64.9,32.7,29.97,NW,311,2.0,3.0,30,0.00,,,0.00,0.0,meteohub,2013-10-29 13:40:00,
2013-10-29 06:45:00,64.9,32.7,29.97,NW,324,1.0,4.0,30,0.00,,,0.00,5.0,meteohub,2013-10-29 13:45:00,
2013-10-29 06:50:00,65.1,32.0,29.97,NNW,338,3.0,4.0,29,0.00,,,0.00,7.0,meteohub,2013-10-29 13:50:00,
2013-10-29 06:55:00,65.1,32.0,29.97,NNW,331,1.0,4.0,29,0.00,,,0.00,12.0,meteohub,2013-10-29 13:55:00,
2013-10-29 07:00:00,64.9,32.7,29.97,NNW,331,1.0,4.0,30,0.00,,,0.00,21.0,meteohub,2013-10-29 14:00:00,
2013-10-29 07:05:00,64.8,32.5,29.97,NNW,331,0.0,3.0,30,0.00,,,0.00,30.0,meteohub,2013-10-29 14:05:00,
2013-10-29 07:10:00,64.2,32.9,29.97,NNW,335,1.0,3.0,31,0.00,,,0.00,40.0,meteohub,2013-10-29 14:10:00,
2013-10-29 07:15:00,64.0,32.7,29.97,NNW,335,0.0,2.0,31,0.00,,,0.00,56.0,meteohub,2013-10-29 14:15:00,
2013-10-29 07:20:00,64.0,33.6,29.98,NNW,335,0.0,2.0,32,0.00,,,0.00,104.0,meteohub,2013-10-29 14:20:00,
2013-10-29 07:25:00,64.8,33.4,29.98,NNW,335,0.0,2.0,31,0.00,,,0.00,118.0,meteohub,2013-10-29 14:25:00,
2013-10-29 07:30:00,65.7,33.4,29.98,NNW,335,1.0,2.0,30,0.00,,,0.00,135.0,meteohub,2013-10-29 14:30:00,
2013-10-29 07:35:00,66.7,33.4,29.99,NNW,335,1.0,2.0,29,0.00,,,0.00,169.0,meteohub,2013-10-29 14:35:00,
2013-10-29 07:40:00,67.6,33.4,29.99,NNW,335,0.0,2.0,28,0.00,,,0.00,109.0,meteohub,2013-10-29 14:40:00,
2013-10-29 07:45:00,68.4,34.0,29.99,NNW,335,2.0,3.0,28,0.00,,,0.00,113.0,meteohub,2013-10-29 14:45:00,
2013-10-29 07:50:00,68.5,34.2,29.99,NW,315,1.0,3.0,28,0.00,,,0.00,130.0,meteohub,2013-10-29 14:50:00,
2013-10-29 07:55:00,68.5,34.2,29.99,NW,315,1.0,3.0,28,0.00,,,0.00,123.0,meteohub,2013-10-29 14:55:00,
2013-10-29 08:00:00,68.7,34.3,29.99,NW,315,1.0,3.0,28,0.00,,,0.00,153.0,meteohub,2013-10-29 15:00:00,
2013-10-29 08:05:00,68.7,34.3,29.99,NW,315,0.0,3.0,28,0.00,,,0.00,139.0,meteohub,2013-10-29 15:05:00,
2013-10-29 08:10:00,68.7,34.3,29.99,NW,319,0.0,4.0,28,0.00,,,0.00,130.0,meteohub,2013-10-29 15:10:00,
2013-10-29 08:15:00,68.9,35.4,30.00,NW,319,0.0,4.0,29,0.00,,,0.00,163.0,meteohub,2013-10-29 15:15:00,
2013-10-29 08:20:00,68.7,34.3,30.00,West,264,1.0,4.0,28,0.00,,,0.00,172.0,meteohub,2013-10-29 15:20:00,
2013-10-29 08:25:00,68.9,34.5,30.00,West,265,1.0,3.0,28,0.00,,,0.00,190.0,meteohub,2013-10-29 15:25:00,
2013-10-29 08:30:00,69.3,33.8,30.00,West,269,1.0,4.0,27,0.00,,,0.00,211.0,meteohub,2013-10-29 15:30:00,
2013-10-29 08:35:00,69.6,33.3,30.00,West,269,1.0,4.0,26,0.00,,,0.00,195.0,meteohub,2013-10-29 15:35:00,
2013-10-29 08:41:00,69.6,33.3,30.00,West,269,2.0,4.0,26,0.00,,,0.00,199.0,meteohub,2013-10-29 15:41:00,
2013-10-29 08:46:00,69.8,33.4,30.00,West,279,2.0,5.0,26,0.00,,,0.00,237.0,meteohub,2013-10-29 15:46:00,
2013-10-29 08:51:00,70.0,33.4,30.00,West,271,1.0,5.0,26,0.00,,,0.00,257.0,meteohub,2013-10-29 15:51:00,
2013-10-29 08:56:00,70.2,32.7,30.00,WSW,245,0.0,5.0,25,0.00,,,0.00,246.0,meteohub,2013-10-29 15:56:00,
2013-10-29 09:01:00,70.5,33.1,30.00,NW,315,0.0,5.0,25,0.00,,,0.00,373.0,meteohub,2013-10-29 16:01:00,
2013-10-29 09:06:00,71.2,33.6,30.00,NW,315,1.0,5.0,25,0.00,,,0.00,315.0,meteohub,2013-10-29 16:06:00,
2013-10-29 09:11:00,72.0,34.2,30.00,NW,313,2.0,3.0,25,0.00,,,0.00,366.0,meteohub,2013-10-29 16:11:00,
2013-10-29 09:16:00,72.3,34.5,29.99,NW,304,2.0,4.0,25,0.00,,,0.00,396.0,meteohub,2013-10-29 16:16:00,
2013-10-29 09:21:00,72.5,33.6,29.99,West,281,1.0,5.0,24,0.00,,,0.00,524.0,meteohub,2013-10-29 16:21:00,
2013-10-29 09:26:00,72.7,33.8,30.00,NW,314,1.0,5.0,24,0.00,,,0.00,489.0,meteohub,2013-10-29 16:26:00,
2013-10-29 09:31:00,72.7,33.8,29.99,NW,323,4.0,5.0,24,0.00,,,0.00,548.0,meteohub,2013-10-29 16:31:00,
2013-10-29 09:36:00,73.0,34.2,29.99,WSW,249,2.0,6.0,24,0.00,,,0.00,659.0,meteohub,2013-10-29 16:36:00,
2013-10-29 09:41:00,73.0,34.2,29.99,WNW,286,3.0,6.0,24,0.00,,,0.00,452.0,meteohub,2013-10-29 16:41:00,
2013-10-29 09:46:00,72.9,34.0,29.99,WNW,298,2.0,6.0,24,0.00,,,0.00,306.0,meteohub,2013-10-29 16:46:00,
2013-10-29 09:51:00,72.3,33.4,29.99,WSW,248,3.0,8.0,24,0.00,,,0.00,246.0,meteohub,2013-10-29 16:51:00,
2013-10-29 09:56:00,72.0,33.3,29.99,NW,309,5.0,11.0,24,0.00,,,0.00,216.0,meteohub,2013-10-29 16:56:00,
2013-10-29 10:01:00,71.8,34.0,29.99,West,277,5.0,11.0,25,0.00,,,0.00,206.0,meteohub,2013-10-29 17:01:00,
2013-10-29 10:06:00,71.4,33.8,29.99,WNW,282,2.0,11.0,25,0.00,,,0.00,199.0,meteohub,2013-10-29 17:06:00,
2013-10-29 10:11:00,71.4,33.8,29.99,NW,309,3.0,9.0,25,0.00,,,0.00,197.0,meteohub,2013-10-29 17:11:00,
2013-10-29 10:16:00,71.6,34.0,29.99,WSW,257,3.0,9.0,25,0.00,,,0.00,209.0,meteohub,2013-10-29 17:16:00,
2013-10-29 10:21:00,71.6,34.0,29.99,NNW,327,2.0,6.0,25,0.00,,,0.00,204.0,meteohub,2013-10-29 17:21:00,
2013-10-29 10:26:00,71.4,33.8,29.99,NW,310,5.0,9.0,25,0.00,,,0.00,202.0,meteohub,2013-10-29 17:26:00,
2013-10-29 10:31:00,71.4,33.8,29.98,West,269,3.0,9.0,25,0.00,,,0.00,211.0,meteohub,2013-10-29 17:31:00,
2013-10-29 10:36:00,71.4,33.8,29.98,NW,306,3.0,9.0,25,0.00,,,0.00,213.0,meteohub,2013-10-29 17:36:00,
2013-10-29 10:41:00,71.6,34.0,29.98,WNW,300,2.0,7.0,25,0.00,,,0.00,206.0,meteohub,2013-10-29 17:41:00,
2013-10-29 10:46:00,71.6,34.0,29.98,West,269,2.0,7.0,25,0.00,,,0.00,188.0,meteohub,2013-10-29 17:46:00,
2013-10-29 10:51:00,71.8,34.0,29.98,WNW,300,2.0,7.0,25,0.00,,,0.00,183.0,meteohub,2013-10-29 17:51:00,
2013-10-29 10:56:00,71.8,34.0,29.98,WSW,237,1.0,7.0,25,0.00,,,0.00,178.0,meteohub,2013-10-29 17:56:00,
2013-10-29 11:01:00,71.8,34.0,29.98,NNW,328,2.0,5.0,25,0.00,,,0.00,195.0,meteohub,2013-10-29 18:01:00,
2013-10-29 11:07:00,71.8,34.0,29.97,SW,233,2.0,6.0,25,0.00,,,0.00,227.0,meteohub,2013-10-29 18:07:00,
2013-10-29 11:12:00,72.0,34.2,29.97,West,268,3.0,6.0,25,0.00,,,0.00,364.0,meteohub,2013-10-29 18:12:00,
2013-10-29 11:17:00,72.1,34.3,29.97,SW,220,1.0,6.0,25,0.00,,,0.00,369.0,meteohub,2013-10-29 18:17:00,
2013-10-29 11:22:00,72.9,35.1,29.97,SW,236,1.0,6.0,25,0.00,,,0.00,645.0,meteohub,2013-10-29 18:22:00,
2013-10-29 11:27:00,73.8,34.7,29.96,SSW,210,3.0,5.0,24,0.00,,,0.00,682.0,meteohub,2013-10-29 18:27:00,
2013-10-29 11:32:00,74.5,35.2,29.96,West,262,2.0,5.0,24,0.00,,,0.00,631.0,meteohub,2013-10-29 18:32:00,
2013-10-29 11:37:00,75.7,35.2,29.95,SSW,195,5.0,5.0,23,0.00,,,0.00,1074.0,meteohub,2013-10-29 18:37:00,
2013-10-29 11:42:00,76.6,34.9,29.95,SSE,148,2.0,5.0,22,0.00,,,0.00,424.0,meteohub,2013-10-29 18:42:00,
2013-10-29 11:47:00,76.8,34.0,29.95,SSE,153,2.0,6.0,21,0.00,,,0.00,345.0,meteohub,2013-10-29 18:47:00,
2013-10-29 11:52:00,76.6,33.8,29.94,WSW,249,5.0,7.0,21,0.00,,,0.00,464.0,meteohub,2013-10-29 18:52:00,
2013-10-29 11:57:00,76.3,34.7,29.94,South,173,2.0,7.0,22,0.00,,,0.00,357.0,meteohub,2013-10-29 18:57:00,
2013-10-29 12:02:00,76.6,33.8,29.94,West,264,3.0,6.0,21,0.00,,,0.00,320.0,meteohub,2013-10-29 19:02:00,
2013-10-29 12:07:00,76.5,34.9,29.94,SSW,192,6.0,9.0,22,0.00,,,0.00,374.0,meteohub,2013-10-29 19:07:00,
2013-10-29 12:12:00,76.8,34.0,29.93,South,191,4.0,9.0,21,0.00,,,0.00,694.0,meteohub,2013-10-29 19:12:00,
2013-10-29 12:17:00,78.1,33.8,29.93,SSW,211,2.0,10.0,20,0.00,,,0.00,893.0,meteohub,2013-10-29 19:17:00,
2013-10-29 12:22:00,79.2,32.0,29.92,SSW,204,5.0,17.0,18,0.00,,,0.00,1104.0,meteohub,2013-10-29 19:22:00,
2013-10-29 12:27:00,79.0,31.8,29.92,West,272,8.0,17.0,18,0.00,,,0.00,540.0,meteohub,2013-10-29 19:27:00,
2013-10-29 12:32:00,78.6,31.6,29.92,West,280,4.0,17.0,18,0.00,,,0.00,427.0,meteohub,2013-10-29 19:32:00,
2013-10-29 12:37:00,78.1,31.1,29.92,SW,236,7.0,13.0,18,0.00,,,0.00,367.0,meteohub,2013-10-29 19:37:00,
2013-10-29 12:42:00,77.5,30.7,29.92,WSW,250,2.0,17.0,18,0.00,,,0.00,320.0,meteohub,2013-10-29 19:42:00,
2013-10-29 12:47:00,77.5,32.0,29.92,SW,223,2.0,17.0,19,0.00,,,0.00,360.0,meteohub,2013-10-29 19:47:00,
2013-10-29 12:52:00,77.9,30.9,29.91,South,190,5.0,17.0,18,0.00,,,0.00,487.0,meteohub,2013-10-29 19:52:00,
2013-10-29 12:57:00,78.1,29.7,29.91,WSW,238,5.0,13.0,17,0.00,,,0.00,415.0,meteohub,2013-10-29 19:57:00,
2013-10-29 13:02:00,78.4,30.0,29.91,West,269,7.0,16.0,17,0.00,,,0.00,415.0,meteohub,2013-10-29 20:02:00,
2013-10-29 13:07:00,79.7,31.1,29.90,West,259,8.0,17.0,17,0.00,,,0.00,995.0,meteohub,2013-10-29 20:07:00,
2013-10-29 13:12:00,80.8,30.4,29.90,SW,236,4.0,17.0,16,0.00,,,0.00,1046.0,meteohub,2013-10-29 20:12:00,
2013-10-29 13:17:00,80.1,31.3,29.90,SW,232,10.0,14.0,17,0.00,,,0.00,454.0,meteohub,2013-10-29 20:17:00,
2013-10-29 13:22:00,79.5,30.9,29.90,SSW,211,8.0,14.0,17,0.00,,,0.00,390.0,meteohub,2013-10-29 20:22:00,
2013-10-29 13:27:00,78.4,31.5,29.89,SW,233,10.0,14.0,18,0.00,,,0.00,510.0,meteohub,2013-10-29 20:27:00,
2013-10-29 13:32:00,78.6,30.2,29.89,SSW,199,4.0,17.0,17,0.00,,,0.00,557.0,meteohub,2013-10-29 20:32:00,
2013-10-29 13:37:00,78.6,31.6,29.89,West,265,7.0,17.0,18,0.00,,,0.00,482.0,meteohub,2013-10-29 20:37:00,
2013-10-29 13:42:00,79.2,30.6,29.88,SW,225,5.0,17.0,17,0.00,,,0.00,689.0,meteohub,2013-10-29 20:42:00,
2013-10-29 13:47:00,80.1,31.3,29.88,South,178,10.0,14.0,17,0.00,,,0.00,833.0,meteohub,2013-10-29 20:47:00,
2013-10-29 13:52:00,80.4,31.6,29.88,SW,227,7.0,14.0,17,0.00,,,0.00,800.0,meteohub,2013-10-29 20:52:00,
2013-10-29 13:57:00,81.0,32.0,29.88,SW,223,7.0,14.0,17,0.00,,,0.00,765.0,meteohub,2013-10-29 20:57:00,
2013-10-29 14:02:00,81.0,30.6,29.88,SW,229,5.0,15.0,16,0.00,,,0.00,751.0,meteohub,2013-10-29 21:02:00,
2013-10-29 14:07:00,81.0,30.6,29.88,SW,217,9.0,15.0,16,0.00,,,0.00,705.0,meteohub,2013-10-29 21:07:00,
2013-10-29 14:12:00,81.0,32.0,29.88,SSE,156,7.0,15.0,17,0.00,,,0.00,759.0,meteohub,2013-10-29 21:12:00,
2013-10-29 14:17:00,81.1,30.7,29.88,SW,229,12.0,15.0,16,0.00,,,0.00,789.0,meteohub,2013-10-29 21:17:00,
2013-10-29 14:22:00,81.7,31.1,29.87,SE,142,6.0,15.0,16,0.00,,,0.00,902.0,meteohub,2013-10-29 21:22:00,
2013-10-29 14:27:00,81.3,29.3,29.87,SSW,199,8.0,16.0,15,0.00,,,0.00,461.0,meteohub,2013-10-29 21:27:00,
2013-10-29 14:32:00,80.2,30.0,29.87,West,268,6.0,18.0,16,0.00,,,0.00,385.0,meteohub,2013-10-29 21:32:00,
2013-10-29 14:37:00,79.7,31.1,29.87,SW,232,5.0,18.0,17,0.00,,,0.00,404.0,meteohub,2013-10-29 21:37:00,
2013-10-29 14:42:00,79.7,31.1,29.87,SW,228,6.0,18.0,17,0.00,,,0.00,439.0,meteohub,2013-10-29 21:42:00,
2013-10-29 14:47:00,80.1,31.3,29.87,WSW,258,9.0,16.0,17,0.00,,,0.00,422.0,meteohub,2013-10-29 21:47:00,
2013-10-29 14:52:00,80.2,30.0,29.87,West,260,5.0,14.0,16,0.00,,,0.00,594.0,meteohub,2013-10-29 21:52:00,
2013-10-29 14:57:00,79.5,27.9,29.87,SSW,200,4.0,18.0,15,0.00,,,0.00,283.0,meteohub,2013-10-29 21:57:00,
2013-10-29 15:02:00,80.1,29.8,29.87,WSW,252,4.0,18.0,16,0.00,,,0.00,301.0,meteohub,2013-10-29 22:02:00,
2013-10-29 15:07:00,79.9,29.7,29.87,West,265,10.0,18.0,16,0.00,,,0.00,489.0,meteohub,2013-10-29 22:07:00,
2013-10-29 15:12:00,80.2,30.0,29.87,SSW,199,6.0,18.0,16,0.00,,,0.00,657.0,meteohub,2013-10-29 22:12:00,
2013-10-29 15:17:00,80.8,30.4,29.87,West,269,7.0,18.0,16,0.00,,,0.00,640.0,meteohub,2013-10-29 22:17:00,
2013-10-29 15:22:00,80.4,28.6,29.87,WSW,241,6.0,17.0,15,0.00,,,0.00,624.0,meteohub,2013-10-29 22:22:00,
2013-10-29 15:27:00,80.4,30.2,29.87,West,266,8.0,19.0,16,0.00,,,0.00,599.0,meteohub,2013-10-29 22:27:00,
2013-10-29 15:32:00,81.0,28.9,29.88,SW,220,6.0,19.0,15,0.00,,,0.00,489.0,meteohub,2013-10-29 22:32:00,
2013-10-29 15:37:00,80.4,30.2,29.88,WSW,257,8.0,19.0,16,0.00,,,0.00,534.0,meteohub,2013-10-29 22:37:00,
2013-10-29 15:42:00,80.2,30.0,29.87,WNW,290,6.0,17.0,16,0.00,,,0.00,415.0,meteohub,2013-10-29 22:42:00,
2013-10-29 15:47:00,80.2,30.0,29.88,WSW,243,8.0,17.0,16,0.00,,,0.00,490.0,meteohub,2013-10-29 22:47:00,
2013-10-29 15:52:00,79.9,29.7,29.88,West,263,5.0,17.0,16,0.00,,,0.00,462.0,meteohub,2013-10-29 22:52:00,
2013-10-29 15:57:00,79.7,29.5,29.88,West,262,6.0,17.0,16,0.00,,,0.00,415.0,meteohub,2013-10-29 22:57:00,
2013-10-29 16:02:00,79.3,29.3,29.88,SW,233,6.0,19.0,16,0.00,,,0.00,380.0,meteohub,2013-10-29 23:02:00,
2013-10-29 16:07:00,79.2,29.1,29.88,SW,236,7.0,19.0,16,0.00,,,0.00,360.0,meteohub,2013-10-29 23:07:00,
2013-10-29 16:12:00,79.2,30.6,29.88,West,260,12.0,19.0,17,0.00,,,0.00,339.0,meteohub,2013-10-29 23:12:00,
2013-10-29 16:17:00,78.8,30.4,29.88,WSW,241,9.0,18.0,17,0.00,,,0.00,322.0,meteohub,2013-10-29 23:17:00,
2013-10-29 16:22:00,78.6,31.6,29.88,SW,221,5.0,17.0,18,0.00,,,0.00,295.0,meteohub,2013-10-29 23:22:00,
2013-10-29 16:27:00,78.4,31.5,29.88,WSW,247,10.0,17.0,18,0.00,,,0.00,278.0,meteohub,2013-10-29 23:27:00,
2013-10-29 16:32:00,78.3,32.5,29.88,SSW,200,10.0,13.0,19,0.00,,,0.00,250.0,meteohub,2013-10-29 23:32:00,
2013-10-29 16:37:00,77.7,32.2,29.88,West,273,7.0,17.0,19,0.00,,,0.00,214.0,meteohub,2013-10-29 23:37:00,
2013-10-29 16:42:00,77.7,33.4,29.88,West,260,12.0,17.0,20,0.00,,,0.00,181.0,meteohub,2013-10-29 23:42:00,
2013-10-29 16:47:00,77.2,33.1,29.88,WSW,244,6.0,17.0,20,0.00,,,0.00,153.0,meteohub,2013-10-29 23:47:00,
2013-10-29 16:52:00,76.8,32.7,29.88,SW,232,6.0,18.0,20,0.00,,,0.00,121.0,meteohub,2013-10-29 23:52:00,
2013-10-29 16:57:00,76.3,33.4,29.88,West,260,11.0,18.0,21,0.00,,,0.00,76.0,meteohub,2013-10-29 23:57:00,
2013-10-29 17:02:00,75.6,34.0,29.88,SSW,207,6.0,17.0,22,0.00,,,0.00,47.0,meteohub,2013-10-30 00:02:00,
2013-10-29 17:07:00,75.0,33.6,29.88,SW,225,5.0,17.0,22,0.00,,,0.00,44.0,meteohub,2013-10-30 00:07:00,
2013-10-29 17:12:00,74.8,33.4,29.88,WSW,247,8.0,16.0,22,0.00,,,0.00,28.0,meteohub,2013-10-30 00:12:00,
2013-10-29 17:17:00,74.5,34.3,29.88,WSW,253,7.0,15.0,23,0.00,,,0.00,19.0,meteohub,2013-10-30 00:17:00,
2013-10-29 17:22:00,73.9,36.0,29.88,West,263,3.0,18.0,25,0.00,,,0.00,16.0,meteohub,2013-10-30 00:22:00,
2013-10-29 17:27:00,73.6,35.6,29.88,West,259,7.0,18.0,25,0.00,,,0.00,14.0,meteohub,2013-10-30 00:27:00,
2013-10-29 17:32:00,73.2,35.2,29.88,WSW,242,9.0,18.0,25,0.00,,,0.00,11.0,meteohub,2013-10-30 00:32:00,
2013-10-29 17:36:00,72.9,35.1,29.89,West,271,6.0,14.0,25,0.00,,,0.00,7.0,meteohub,2013-10-30 00:36:00,
2013-10-29 17:41:00,72.7,34.9,29.89,WSW,242,6.0,14.0,25,0.00,,,0.00,0.0,meteohub,2013-10-30 00:41:00,
2013-10-29 17:47:00,72.3,34.5,29.89,WSW,239,4.0,14.0,25,0.00,,,0.00,0.0,meteohub,2013-10-30 00:47:00,
2013-10-29 17:52:00,72.1,34.3,29.89,West,264,7.0,12.0,25,0.00,,,0.00,0.0,meteohub,2013-10-30 00:52:00,
2013-10-29 17:57:00,71.8,35.1,29.89,NW,323,8.0,13.0,26,0.00,,,0.00,0.0,meteohub,2013-10-30 00:57:00,
2013-10-29 18:02:00,71.1,35.4,29.90,West,272,6.0,13.0,27,0.00,,,0.00,0.0,meteohub,2013-10-30 01:02:00,
2013-10-29 18:07:00,70.5,36.7,29.90,WNW,290,5.0,13.0,29,0.00,,,0.00,0.0,meteohub,2013-10-30 01:07:00,
2013-10-29 18:12:00,70.2,36.5,29.90,WNW,282,10.0,13.0,29,0.00,,,0.00,0.0,meteohub,2013-10-30 01:12:00,
2013-10-29 18:17:00,69.8,37.0,29.90,West,261,5.0,13.0,30,0.00,,,0.00,0.0,meteohub,2013-10-30 01:17:00,
2013-10-29 18:22:00,69.4,37.4,29.90,WSW,238,6.0,13.0,31,0.00,,,0.00,0.0,meteohub,2013-10-30 01:22:00,
2013-10-29 18:27:00,69.3,37.4,29.91,WSW,258,6.0,14.0,31,0.00,,,0.00,0.0,meteohub,2013-10-30 01:27:00,
2013-10-29 18:32:00,69.1,37.2,29.91,WSW,255,13.0,14.0,31,0.00,,,0.00,0.0,meteohub,2013-10-30 01:32:00,
2013-10-29 18:37:00,68.7,37.6,29.91,West,260,5.0,15.0,32,0.00,,,0.00,0.0,meteohub,2013-10-30 01:37:00,
2013-10-29 18:42:00,68.4,37.4,29.91,NW,309,5.0,15.0,32,0.00,,,0.00,0.0,meteohub,2013-10-30 01:42:00,
2013-10-29 18:47:00,68.4,37.4,29.92,WNW,297,8.0,15.0,32,0.00,,,0.00,0.0,meteohub,2013-10-30 01:47:00,
2013-10-29 18:52:00,68.0,37.8,29.92,NW,317,5.0,13.0,33,0.00,,,0.00,0.0,meteohub,2013-10-30 01:52:00,
2013-10-29 18:57:00,67.8,37.6,29.92,WNW,298,3.0,13.0,33,0.00,,,0.00,0.0,meteohub,2013-10-30 01:57:00,
2013-10-29 19:02:00,67.5,37.4,29.93,West,271,4.0,12.0,33,0.00,,,0.00,0.0,meteohub,2013-10-30 02:02:00,
2013-10-29 19:07:00,67.5,37.4,29.93,West,271,3.0,12.0,33,0.00,,,0.00,0.0,meteohub,2013-10-30 02:07:00,
2013-10-29 19:12:00,67.5,38.1,29.93,NW,311,4.0,12.0,34,0.00,,,0.00,0.0,meteohub,2013-10-30 02:12:00,
2013-10-29 19:17:00,67.3,37.9,29.93,West,259,3.0,13.0,34,0.00,,,0.00,0.0,meteohub,2013-10-30 02:17:00,
2013-10-29 19:22:00,66.9,37.6,29.93,WSW,248,11.0,13.0,34,0.00,,,0.00,0.0,meteohub,2013-10-30 02:22:00,
2013-10-29 19:27:00,66.9,37.6,29.94,West,265,3.0,13.0,34,0.00,,,0.00,0.0,meteohub,2013-10-30 02:27:00,
2013-10-29 19:32:00,66.6,38.1,29.94,West,265,3.0,11.0,35,0.00,,,0.00,0.0,meteohub,2013-10-30 02:32:00,
2013-10-29 19:37:00,66.4,37.9,29.94,WNW,283,2.0,11.0,35,0.00,,,0.00,0.0,meteohub,2013-10-30 02:37:00,
2013-10-29 19:42:00,66.0,37.6,29.94,West,265,5.0,10.0,35,0.00,,,0.00,0.0,meteohub,2013-10-30 02:42:00,
2013-10-29 19:47:00,65.8,38.1,29.94,West,259,3.0,10.0,36,0.00,,,0.00,0.0,meteohub,2013-10-30 02:47:00,
2013-10-29 19:52:00,65.7,37.9,29.94,West,263,4.0,8.0,36,0.00,,,0.00,0.0,meteohub,2013-10-30 02:52:00,
2013-10-29 19:57:00,65.5,37.8,29.94,West,261,6.0,8.0,36,0.00,,,0.00,0.0,meteohub,2013-10-30 02:57:00,
2013-10-29 20:02:00,65.1,37.6,29.94,SW,229,4.0,9.0,36,0.00,,,0.00,0.0,meteohub,2013-10-30 03:02:00,
2013-10-29 20:07:00,65.1,37.6,29.95,WSW,251,3.0,9.0,36,0.00,,,0.00,0.0,meteohub,2013-10-30 03:07:00,
2013-10-29 20:12:00,64.8,37.9,29.95,SW,235,2.0,9.0,37,0.00,,,0.00,0.0,meteohub,2013-10-30 03:12:00,
2013-10-29 20:17:00,64.4,38.3,29.95,SW,235,1.0,8.0,38,0.00,,,0.00,0.0,meteohub,2013-10-30 03:17:00,
2013-10-29 20:22:00,64.0,37.9,29.95,SW,225,0.0,4.0,38,0.00,,,0.00,0.0,meteohub,2013-10-30 03:22:00,
2013-10-29 20:27:00,63.3,38.7,29.95,South,184,0.0,3.0,40,0.00,,,0.00,0.0,meteohub,2013-10-30 03:27:00,
2013-10-29 20:32:00,62.8,38.7,29.96,South,184,0.0,3.0,41,0.00,,,0.00,0.0,meteohub,2013-10-30 03:32:00,
2013-10-29 20:37:00,62.2,38.8,29.96,South,184,0.0,3.0,42,0.00,,,0.00,0.0,meteohub,2013-10-30 03:37:00,
2013-10-29 20:42:00,61.5,38.8,29.96,South,184,1.0,1.0,43,0.00,,,0.00,0.0,meteohub,2013-10-30 03:42:00,
2013-10-29 20:47:00,61.2,38.5,29.96,South,184,0.0,1.0,43,0.00,,,0.00,0.0,meteohub,2013-10-30 03:47:00,
2013-10-29 20:52:00,60.4,38.5,29.96,South,184,2.0,2.0,44,0.00,,,0.00,0.0,meteohub,2013-10-30 03:52:00,
2013-10-29 20:57:00,60.1,38.7,29.96,South,184,0.0,2.0,45,0.00,,,0.00,0.0,meteohub,2013-10-30 03:57:00,
2013-10-29 21:01:00,59.9,38.5,29.96,South,184,1.0,2.0,45,0.00,,,0.00,0.0,meteohub,2013-10-30 04:01:00,
2013-10-29 21:06:00,59.5,38.1,29.97,South,184,0.0,2.0,45,0.00,,,0.00,0.0,meteohub,2013-10-30 04:06:00,
2013-10-29 21:11:00,59.0,38.8,29.97,South,184,1.0,1.0,47,0.00,,,0.00,0.0,meteohub,2013-10-30 04:11:00,
2013-10-29 21:16:00,58.6,38.5,29.97,South,184,0.0,2.0,47,0.00,,,0.00,0.0,meteohub,2013-10-30 04:16:00,
2013-10-29 21:21:00,58.3,38.1,29.97,South,184,0.0,2.0,47,0.00,,,0.00,0.0,meteohub,2013-10-30 04:21:00,
2013-10-29 21:26:00,57.7,38.1,29.97,South,184,0.0,2.0,48,0.00,,,0.00,0.0,meteohub,2013-10-30 04:26:00,
2013-10-29 21:31:00,57.4,37.9,29.97,South,184,0.0,1.0,48,0.00,,,0.00,0.0,meteohub,2013-10-30 04:31:00,
2013-10-29 21:36:00,56.8,37.4,29.97,South,184,0.0,1.0,48,0.00,,,0.00,0.0,meteohub,2013-10-30 04:36:00,
2013-10-29 21:41:00,56.3,37.4,29.98,South,184,0.0,1.0,49,0.00,,,0.00,0.0,meteohub,2013-10-30 04:41:00,
2013-10-29 21:46:00,55.8,37.4,29.98,South,184,1.0,1.0,50,0.00,,,0.00,0.0,meteohub,2013-10-30 04:46:00,
2013-10-29 21:51:00,55.2,37.9,29.98,South,184,0.0,1.0,52,0.00,,,0.00,0.0,meteohub,2013-10-30 04:51:00,
2013-10-29 21:57:00,55.0,37.8,29.98,South,184,0.0,1.0,52,0.00,,,0.00,0.0,meteohub,2013-10-30 04:57:00,
2013-10-29 22:02:00,54.9,37.6,29.98,South,184,0.0,1.0,52,0.00,,,0.00,0.0,meteohub,2013-10-30 05:02:00,
2013-10-29 22:07:00,54.5,36.7,29.98,South,184,0.0,2.0,51,0.00,,,0.00,0.0,meteohub,2013-10-30 05:07:00,
2013-10-29 22:12:00,54.1,36.9,29.98,South,184,1.0,2.0,52,0.00,,,0.00,0.0,meteohub,2013-10-30 05:12:00,
2013-10-29 22:17:00,53.8,37.0,29.98,South,184,0.0,2.0,53,0.00,,,0.00,0.0,meteohub,2013-10-30 05:17:00,
2013-10-29 22:22:00,53.6,36.9,29.99,South,184,0.0,2.0,53,0.00,,,0.00,0.0,meteohub,2013-10-30 05:22:00,
2013-10-29 22:27:00,53.4,37.2,29.99,South,184,0.0,2.0,54,0.00,,,0.00,0.0,meteohub,2013-10-30 05:27:00,
2013-10-29 22:32:00,53.2,37.4,29.99,South,184,0.0,1.0,55,0.00,,,0.00,0.0,meteohub,2013-10-30 05:32:00,
2013-10-29 22:37:00,53.2,37.4,29.99,South,184,1.0,0.0,55,0.00,,,0.00,0.0,meteohub,2013-10-30 05:37:00,
2013-10-29 22:42:00,53.1,36.9,29.99,South,184,0.0,1.0,54,0.00,,,0.00,0.0,meteohub,2013-10-30 05:42:00,
2013-10-29 22:47:00,52.7,37.4,29.99,South,184,0.0,1.0,56,0.00,,,0.00,0.0,meteohub,2013-10-30 05:47:00,
2013-10-29 22:52:00,52.5,36.9,29.99,South,184,1.0,1.0,55,0.00,,,0.00,0.0,meteohub,2013-10-30 05:52:00,
2013-10-29 22:57:00,52.3,37.6,29.99,South,184,0.0,2.0,57,0.00,,,0.00,0.0,meteohub,2013-10-30 05:57:00,
2013-10-29 23:02:00,52.3,37.0,29.98,South,184,0.0,2.0,56,0.00,,,0.00,0.0,meteohub,2013-10-30 06:02:00,
2013-10-29 23:07:00,52.3,37.6,29.99,South,184,0.0,2.0,57,0.00,,,0.00,0.0,meteohub,2013-10-30 06:07:00,
2013-10-29 23:12:00,52.3,37.6,29.98,South,184,0.0,1.0,57,0.00,,,0.00,0.0,meteohub,2013-10-30 06:12:00,
2013-10-29 23:17:00,52.2,36.9,29.98,South,184,0.0,1.0,56,0.00,,,0.00,0.0,meteohub,2013-10-30 06:17:00,
2013-10-29 23:22:00,52.0,37.6,29.98,South,184,0.0,0.0,58,0.00,,,0.00,0.0,meteohub,2013-10-30 06:22:00,
2013-10-29 23:27:00,52.0,37.6,29.98,South,184,0.0,0.0,58,0.00,,,0.00,0.0,meteohub,2013-10-30 06:27:00,
2013-10-29 23:32:00,51.8,37.6,29.97,South,184,0.0,0.0,58,0.00,,,0.00,0.0,meteohub,2013-10-30 06:32:00,
2013-10-29 23:37:00,51.6,37.8,29.97,South,184,0.0,0.0,59,0.00,,,0.00,0.0,meteohub,2013-10-30 06:37:00,
2013-10-29 23:42:00,51.6,36.9,29.97,South,184,0.0,0.0,57,0.00,,,0.00,0.0,meteohub,2013-10-30 06:42:00,
2013-10-29 23:47:00,51.3,36.5,29.97,South,184,0.0,0.0,57,0.00,,,0.00,0.0,meteohub,2013-10-30 06:47:00,
2013-10-29 23:52:00,51.1,36.3,29.97,South,184,0.0,0.0,57,0.00,,,0.00,0.0,meteohub,2013-10-30 06:52:00,
2013-10-29 23:57:00,50.7,36.9,29.97,South,184,1.0,0.0,59,0.00,,,0.00,0.0,meteohub,2013-10-30 06:57:00,